Location: Boeregem
(50.8634°N, 3.5154°E)
Time: 18:19:52
(UTC+00:00)

Daily predictions for brighter satellites

Satellite Brightness Start Highest point End
(mag) Time Altitude Azimuth Time Altitude Azimuth Time Altitude Azimuth
Cosmos 1844 Rocket 2.8 17:07:05 10° NNW 17:12:36 56° NE 17:18:03 10° SE
APEX 4.3 17:09:38 10° SSW 17:15:36 66° ESE 17:21:01 10° NE
Cosmos 841 Rocket 4.2 17:11:13 10° N 17:15:59 32° NE 17:20:41 10° ESE
ATLAS CENTAUR R/B 2.3 17:11:25 10° WSW 17:16:01 54° NW 17:20:26 10° NE
Cosmos 2228 2.9 17:13:52 10° N 17:18:07 73° ENE 17:22:20 10° SSE
USA 281 3.5 17:12:53 10° NNE 17:19:28 75° WNW 17:26:01 10° SW
Cosmos 1536 Rocket 3.5 17:16:05 10° S 17:20:24 74° E 17:24:45 10° NNE
Landsat 4 4.2 17:18:52 10° S 17:22:27 63° WSW 17:26:06 10° NNW
Cosmos 2251 Rocket 4.1 17:21:35 10° SW 17:26:54 63° WNW 17:32:17 10° NNE
Cosmos 1892 2.9 17:24:09 10° SSE 17:27:44 45° E 17:31:21 10° NNE
Cosmos 1606 Rocket 3.6 17:25:17 10° N 17:29:32 55° ENE 17:33:47 10° SSE
SL-08 RB Rocket 4.4 17:25:53 10° S 17:30:29 63° W 17:35:08 10° NNW
CZ-4B R/B 3.9 17:25:55 10° ESE 17:30:34 31° ENE 17:35:18 10° N
CZ-4B DEB 4.4 17:25:24 10° SE 17:30:39 51° ENE 17:35:57 10° N
Cosmos 1825 2.9 17:27:30 10° SSE 17:30:47 31° E 17:34:05 10° NNE
Cosmos 1328 3.7 17:26:58 10° S 17:30:55 83° E 17:34:53 10° NNE
ADEOS 3.9 17:27:07 10° S 17:32:20 75° WSW 17:37:35 10° NNW
ISS -0.7 17:31:00 10° WSW 17:32:57 15° SW 17:34:54 10° S
Lacrosse 5 rocket 0.9 17:30:47 10° WNW 17:34:22 83° NNE 17:38:02 10° ESE
Cosmos 1844 3.7 17:29:17 10° NNW 17:35:06 70° ENE 17:40:51 10° SE
USA 290 4.2 17:33:31 10° WSW 17:36:21 28° WNW 17:39:13 10° N
Meteor 1-11 4.4 17:32:40 10° S 17:38:19 55° E 17:43:56 10° NNE
Cosmos 2219 Rocket 3.5 17:35:16 10° SE 17:39:00 19° E 17:42:37 10° ENE
Cosmos 2360 Rocket 2.7 17:34:44 10° S 17:39:54 38° ESE 17:45:06 10° NE
Cosmos 2278 4.1 17:36:09 10° SW 17:41:48 66° WNW 17:47:30 10° NNE
Nadezhda 2 Rocket 4.5 17:37:06 10° N 17:43:15 62° ENE 17:49:18 10° SSE
Cosmos 1892 Rocket 4.1 17:41:13 10° SSE 17:45:15 36° E 17:49:16 10° NNE
Cosmos 407 Rocket 4.1 17:41:42 10° SW 17:46:46 59° WNW 17:51:51 10° NNE
Cosmos 1461 3.2 17:43:28 10° SSW 17:47:38 52° ESE 17:51:43 12° NE
Cosmos 676 Rocket 4.0 17:43:43 10° S 17:48:56 64° ESE 17:54:09 10° NNE
Cosmos 1340 3.1 17:45:33 10° N 17:48:58 35° ENE 17:52:22 10° SE
Cosmos 2278 Rocket 3.4 17:44:34 10° NNW 17:48:59 22° NE 17:52:11 14° E
COSMO-SKYMED 1 2.6 17:45:03 10° NNE 17:49:21 57° E 17:53:37 10° S
Cosmos 1140 Rocket 4.4 17:44:50 10° SW 17:49:50 48° WNW 17:54:51 10° NNE
Cosmos 44 Rocket 4.5 17:48:22 10° SSE 17:51:56 22° ESE 17:54:11 16° ENE
CZ-4C R/B 3.4 17:48:55 10° NNE 17:52:37 46° E 17:56:07 10° S
ATLAS 5 CENTAUR R/B 3.6 17:49:45 10° NW 17:52:39 18° N 17:55:55 10° NE
Cosmos 2322 Rocket 2.2 17:47:50 10° SSW 17:53:23 67° ESE 17:58:59 10° NE
Aureole 2 4.4 17:51:08 10° NNW 17:53:59 41° ENE 17:56:47 10° SE
BlueWalker 3 2.1 17:50:13 10° WNW 17:54:04 60° N 17:56:49 18° E
Cosmos 2333 Rocket 2.9 17:50:09 10° S 17:55:10 34° ESE 18:00:14 10° NE
Cosmos 1633 2.5 17:56:24 10° S 17:59:38 48° E 18:02:53 10° NNE
Cosmos 1726 Rocket 3.4 17:56:32 10° N 18:00:52 86° ENE 18:05:12 10° S
Cosmos 1606 3.7 17:58:22 10° NNE 18:01:36 25° ENE 18:03:57 15° ESE
CZ-4 R/B 2.1 17:58:56 10° SE 18:02:36 32° ENE 18:06:13 10° N
IRIDIUM 106 4.4 17:58:36 10° N 18:03:44 55° E 18:08:51 10° SSE
In-Cosmos 22 Rocket 4.2 18:01:56 10° S 18:07:43 74° E 18:13:33 10° NNE
SL-16 R/B 2.4 18:03:47 10° SW 18:09:27 73° WNW 18:15:09 10° NNE
RESURS DK-1 2.8 18:05:24 10° NW 18:09:30 66° WSW 18:13:34 10° SSE
COSMOS 2428 3.9 18:06:20 10° SE 18:10:21 20° E 18:11:03 20° E
SL-4 R/B 1.6 18:07:16 10° W 18:10:46 89° N 18:12:47 25° E
Cosmos 1408 4.3 18:08:52 10° SW 18:11:59 32° WNW 18:15:09 10° N
Cosmos 2333 4.5 18:09:03 10° S 18:14:20 44° ESE 18:18:59 14° NE
Genesis I 3.3 18:11:49 10° SSW 18:15:41 56° SE 18:17:45 25° ENE
Cosmos 1626 Rocket 4.3 18:14:39 10° SSE 18:18:20 28° E 18:19:21 25° ENE
Cosmos 1980 Rocket 4.1 18:14:36 10° W 18:19:16 25° NW 18:23:59 10° NNE
Cosmos 1943 Rocket 3.7 18:15:42 10° N 18:19:30 18° NNE 18:20:45 17° NE
SKYMED 3 4.3 18:15:59 10° NNE 18:20:09 80° ESE 18:24:18 10° SSW
Cosmos 1386 Rocket 4.3 18:19:15 10° N 18:25:15 68° ENE 18:31:16 10° SSE
Cosmos 1745 Rocket 3.9 18:20:23 10° N 18:26:38 65° ENE 18:32:45 10° SSE
Okean O Rocket 1.7 18:23:11 10° SE 18:27:27 53° ENE 18:31:47 10° N
HJ-1C 4.4 18:29:57 23° N 18:29:57 23° N 18:31:08 10° N
Lacrosse 5 1.9 18:25:05 10° WSW 18:30:13 82° NNW 18:33:04 27° NE
Feng Yun 1-1 Rocket 4.2 18:26:52 10° SE 18:32:16 58° ENE 18:37:36 10° N
IGS 5A 3.7 18:31:16 30° ESE 18:32:46 43° ENE 18:36:41 10° N
Okean-O 3.9 18:34:20 24° NE 18:34:20 24° NE 18:37:00 10° N
MOS 1-B 4.3 18:27:48 10° SSE 18:33:37 88° ENE 18:39:28 10° NNW
CZ-2C R/B 4.1 18:29:57 10° NNE 18:33:41 37° E 18:44:31 10° SSE
Cosmos 2322 4.1 18:29:33 10° S 18:34:48 39° ESE 18:37:01 28° ENE
SKYMED 2 4.4 18:33:16 10° N 18:37:30 51° WNW 18:41:42 10° SW
Okean 1-7 Rocket 3.9 18:33:32 10° SSE 18:37:42 41° E 18:39:09 31° NE
Cosmos 2058 Rocket 3.5 18:39:30 10° NNW 18:43:53 62° W 18:48:14 10° S
Cosmos 1869 4.2 18:40:42 10° NNW 18:44:28 49° W 18:48:17 10° S
Cosmos 1709 Rocket 3.9 18:38:45 10° N 18:44:50 58° ENE 18:50:50 10° SSE
YAOGAN 1 3.0 18:41:35 10° S 18:45:51 63° WSW 18:50:09 10° NNW
Cosmos 1814 Rocket 3.9 18:45:09 10° NNW 18:50:33 79° ENE 18:54:29 19° SSE
Gblst 52 Del rocket 4.0 18:46:59 10° W 18:52:35 87° N 18:54:30 43° E
Cosmos 1553 Rocket 4.2 18:46:37 10° SSW 18:52:41 73° W 18:58:54 10° N
ATLAS CENTAUR R/B 3.7 18:52:12 10° WNW 18:55:27 19° NNW 18:57:41 13° NNE
Cosmos 1417 Rocket 4.4 18:49:56 10° S 18:56:12 90° E 19:02:25 10° N
Cosmos 841 Rocket 4.5 18:52:59 10° NNW 18:58:03 48° WSW 19:03:03 10° S
Cosmos 1850 Rocket 3.9 18:53:44 10° SSW 18:58:55 87° WNW 19:02:49 18° NNE
Resurs 1-3 4.2 19:01:52 40° NNE 19:01:52 40° NNE 19:05:04 10° N
Cosmos 883 Rocket 4.4 19:01:41 10° S 19:07:54 68° E 19:14:12 10° NNE
Cosmos 1741 Rocket 4.1 19:02:47 10° SSW 19:08:06 78° WNW 19:12:02 19° NNE
SJ-6B 3.2 19:10:10 53° N 19:10:10 53° N 19:13:19 10° NNW
USA 81 3.9 19:05:14 10° S 19:10:30 84° E 19:15:49 10° N
CZ-4B R/B 4.0 19:05:40 10° S 19:10:53 52° W 19:16:15 10° NNW
Lacrosse 5 rocket 3.5 19:10:14 10° W 19:12:51 19° SW 19:14:37 14° SSW
Cosmos-2242 3.5 19:09:31 10° N 19:12:36 46° N 19:12:36 46° N
Cosmos 2208 Rocket 3.9 19:11:45 10° NNW 19:16:55 66° ENE 19:16:55 66° ENE
Lacrosse 4 Rocket 3.6 19:17:57 10° NNW 19:19:34 17° N 19:19:34 17° N
Cosmos 2219 Rocket 2.1 19:16:38 10° SSW 19:22:14 84° WNW 19:24:23 40° NNE
Cosmos 2360 Rocket 3.2 19:18:26 10° SW 19:23:50 45° NW 19:28:12 16° NNE
Meteor 2-2 Rocket 4.1 19:20:58 10° N 19:26:36 70° ENE 19:26:36 70° ENE
Cosmos 1461 4.5 19:22:42 10° W 19:26:42 33° NW 19:27:52 29° N
Cosmos 1570 Rocket 4.0 19:22:54 10° NNW 19:28:18 83° WSW 19:29:08 64° S
S3M 4.3 19:22:47 10° SSW 19:29:07 67° WNW 19:35:29 10° N
BlueWalker 3 3.2 19:28:57 10° WNW 19:31:36 41° W 19:31:36 41° W
Cosmos 44 Rocket 3.4 19:28:16 10° SW 19:32:55 69° NW 19:32:55 69° NW
Cosmos 2278 Rocket 2.0 19:28:14 10° NNW 19:33:57 83° ENE 19:34:05 82° E
Cosmos 1606 4.5 19:33:40 10° NNW 19:37:04 31° W 19:38:52 21° SW
CZ-4 R/B 3.3 19:33:54 10° SSW 19:37:29 29° W 19:41:03 10° NW
Cosmos 968 Rocket 4.0 19:32:39 10° SSW 19:36:19 47° SSW 19:36:19 47° SSW
Cosmos 2322 Rocket 3.9 19:33:02 10° WSW 19:37:54 29° NW 19:42:10 13° NNE
ATLAS 5 CENTAUR R/B 3.5 19:34:45 10° NNW 19:37:28 23° N 19:37:28 23° N
Cosmos 1812 Rocket 4.2 19:34:41 10° NNW 19:38:39 56° WNW 19:38:39 56° WNW
Cosmos 2333 Rocket 2.9 19:33:46 10° SW 19:39:16 50° NW 19:42:19 26° N
BREEZE-M DEB (TANK) 3.4 19:29:52 10° WSW 19:38:56 57° SSW 19:38:56 57° SSW
Resurs 01 Rocket 3.9 19:45:54 16° N 19:45:54 16° N 19:46:51 10° N
Cosmos 2369 Rocket 4.0 19:43:54 10° NNW 19:46:17 19° N 19:46:17 19° N
SL-4 R/B 4.1 19:46:33 10° W 19:48:06 22° W 19:48:06 22° W
Landsat 7 4.5 19:51:54 52° WNW 19:51:54 52° WNW 19:56:01 10° NNW
Cosmos 2315 Rocket 4.2 19:46:35 10° SSW 19:52:54 71° WNW 19:59:19 10° N
COSMOS 2428 2.9 19:48:16 10° SSW 19:53:08 66° SW 19:53:08 66° SW
SL-16 R/B 4.4 19:50:24 10° W 19:54:34 20° NW 19:58:25 11° N
CSL-04 Rocket 4.1 19:53:48 49° SW 19:54:49 57° W 20:00:10 10° NNW
Okean O Rocket 4.1 20:00:49 10° SW 20:04:07 20° W 20:07:26 10° NW
Cosmos 1943 Rocket 3.3 19:58:52 10° NNW 20:02:17 36° N 20:02:17 36° N
Lacrosse 5 3.3 20:08:48 10° W 20:12:18 35° NW 20:12:18 35° NW
Cosmos 2219 Rocket 4.3 21:02:43 10° W 21:06:10 22° NW 21:06:10 22° NW
